Terminal Aerodrome Forecast
Issued by NWS Pittsburgh, PA

Current Version | Previous Version | Graphics & Text | Print | Product List | Glossary On
Versions: 1 2 3 4 5 6 7 8 9 10 11 12 13 14 15 16 17 18 19 20 21 22 23 24 25 26 27 28 29 30 31 32
000
FTUS41 KPBZ 150900 AAA
TAFPIT
TAF AMD
KPIT 150915Z 1509/1612 00000KT P6SM FEW250
      TEMPO 1511/1513 4SM BR SCT002
     FM151500 17005KT P6SM SCT250
     FM160200 VRB03KT 6SM -RA OVC050=

USA.gov is the U.S. government's official web portal to all federal, state and local government web resources and services.